[[{"header":{"parameterUnit":"m.s-1","parameterCategory":1,"la1":30.2991,"la2":30.254,"lo1":-89.0895,"lo2":-89.0444,"dy":0.0017,"dx":0.0017,"nx":28,"ny":28,"refTime":"2024-04-30T03:00:00:Z","depth":0,"parameterNumber":2,"parameterNumberName":"U-component_of_WINDS"},"data":[0,0,0,0,0,0,0,0,0,0,0,0,0,0,0,0,0,0,0,0,0,0,0,0,0,0,0,0,0,0,0,0,0,0,0,0,0,0,0,0,0,0,0,0,0,0,0,0,0,0,0,0,0,0,0,0,0,0,-1.5925,-1.5925,0,-1.5908,-1.5907,-1.5907,-1.5878,-1.5878,-1.5877,-1.5877,-1.5858,-1.5858,-1.5858,0,0,0,0,0,0,0,0,0,0,0,0,0,-1.5936,-1.5936,-1.5925,-1.5925,-1.5925,-1.5908,-1.5907,-1.5907,-1.5878,-1.5878,-1.5877,-1.5876,-1.5858,-1.5858,-1.5858,0,0,0,0,0,0,0,0,0,0,0,0,0,-1.5926,-1.5936,-1.5925,-1.5908,-1.5907,-1.5908,-1.5907,-1.5907,-1.5879,-1.5878,-1.5877,-1.5876,-1.5858,-1.5858,-1.5858,-1.5874,0,0,-1.5858,-1.5858,0,0,0,0,0,0,0,0,-1.5926,-1.5926,-1.5911,-1.5909,-1.5908,-1.5894,-1.5904,-1.5896,-1.5879,-1.5889,-1.5877,-1.5876,-1.5871,-1.587,-1.5868,-1.5874,-1.5873,-1.5858,-1.5858,-1.5858,-1.5858,0,0,0,0,0,0,0,-1.5927,-1.5926,-1.5918,-1.5911,-1.5909,-1.5902,-1.59,-1.5903,-1.5885,-1.5888,-1.5886,-1.5884,-1.587,-1.5868,-1.5868,-1.5873,-1.5858,-1.5858,-1.5858,-1.5858,-1.5893,-1.5894,0,0,0,0,0,0,-1.593,-1.5927,-1.5919,-1.5918,-1.5915,-1.5903,-1.59,-1.5899,-1.5885,-1.5882,-1.5885,-1.5883,-1.5869,-1.5868,-1.5867,-1.5886,-1.5858,-1.5858,-1.5858,-1.5892,-1.5893,-1.5894,0,0,0,0,0,0,-1.5931,-1.593,-1.5919,-1.5922,-1.592,-1.5903,-1.5903,-1.5899,-1.5898,-1.5882,-1.5879,-1.5887,-1.5868,-1.5867,-1.5873,-1.5885,-1.5858,-1.5858,-1.5891,-1.5893,-1.5894,-1.5924,0,0,0,0,0,0,-1.5931,-1.593,-1.5935,-1.5922,-1.592,-1.5926,-1.5903,-1.59,-1.5898,-1.5895,-1.5883,-1.588,-1.5867,-1.5874,-1.5874,-1.5885,-1.5858,-1.589,-1.5892,-1.5893,-1.5922,-1.5926,-1.593,0,0,0,0,0,-1.5931,-1.5944,-1.5936,-1.5935,-1.5926,-1.5926,-1.5925,-1.591,-1.5899,-1.5905,-1.5895,-1.5881,-1.5884,-1.5875,-1.5874,-1.5885,-1.5889,-1.5891,-1.5893,-1.592,-1.5925,-1.593,0,0,0,0,0,0,-1.5958,-1.5941,-1.5932,-1.5941,-1.5935,-1.5921,-1.5928,-1.5916,-1.5913,-1.5911,-1.5893,-1.589,-1.5899,-1.5893,-1.5883,-1.5902,-1.5885,-1.5887,-1.5905,-1.591,-1.5914,-1.5915,-1.5858,0,0,0,0,0,-1.5965,-1.5966,-1.5952,-1.5961,-1.5959,-1.5944,-1.5943,-1.5933,-1.5926,-1.5924,-1.5914,-1.5909,-1.5909,-1.5909,-1.5908,-1.5921,-1.5919,-1.5929,-1.5933,-1.5937,-1.5938,-1.5947,-1.5952,-1.5901,-1.5901,-1.5901,0,0,-1.5978,-1.597,-1.5971,-1.5966,-1.596,-1.5963,-1.5942,-1.5945,-1.5947,-1.5924,-1.593,-1.5924,-1.5916,-1.5927,-1.5931,-1.5922,-1.5952,-1.5939,-1.5942,-1.5942,-1.5949,-1.5954,-1.5958,-1.5902,-1.5902,-1.5902,0,0,-1.6005,-1.5998,-1.6005,-1.6001,-1.5994,-1.5985,-1.5987,-1.5975,-1.597,-1.5976,-1.596,-1.5963,-1.5963,-1.5959,-1.5957,-1.5986,-1.5973,-1.5987,-1.6007,-1.6016,-1.602,-1.6023,-1.6034,-1.6039,-1.5989,-1.5989,-1.5989,0,-1.6023,-1.6025,-1.6011,-1.6015,-1.6014,-1.5995,-1.6004,-1.6,-1.5993,-1.5993,-1.5983,-1.5985,-1.5978,-1.5988,-1.5996,-1.5995,-1.5998,-1.5987,-1.602,-1.6024,-1.6027,-1.6037,-1.6041,-1.5991,-1.599,-1.599,-1.599,0,-1.6048,-1.6051,-1.6058,-1.6052,-1.6052,-1.6058,-1.6046,-1.6048,-1.6038,-1.6031,-1.6038,-1.6031,-1.6029,-1.6031,-1.6021,-1.6041,-1.6035,-1.6024,-1.6006,-1.6033,-1.6043,-1.6047,-1.5993,-1.5992,-1.5992,-1.5991,0,0,-1.6088,-1.6077,-1.6079,-1.6078,-1.607,-1.6072,-1.6079,-1.6078,-1.608,-1.6077,-1.6082,-1.6085,-1.6075,-1.6073,-1.6063,-1.607,-1.6096,-1.6058,-1.6057,-1.6065,-1.6118,-1.6127,-1.6132,-1.6088,-1.6089,-1.6089,-1.6119,0,-1.6113,-1.6123,-1.6112,-1.6124,-1.6128,-1.6112,-1.6118,-1.6114,-1.6108,-1.6111,-1.6104,-1.6106,-1.6092,-1.6091,-1.6098,-1.6091,-1.6106,-1.6089,-1.6093,-1.6094,-1.6095,-1.6137,-1.6145,-1.6174,-1.6123,-1.6123,-1.6124,0,-1.6142,-1.6141,-1.6155,-1.6148,-1.6149,-1.6155,-1.6154,-1.6157,-1.6154,-1.6149,-1.6149,-1.6137,-1.6145,-1.6129,-1.614,-1.6129,-1.6131,-1.6128,-1.6129,-1.6128,-1.611,-1.6137,-1.6183,-1.6187,-1.6129,-1.6129,-1.6129,0,-1.617,-1.6173,-1.6182,-1.6181,-1.6173,-1.6178,-1.6175,-1.6171,-1.6172,-1.6172,-1.6173,-1.6174,-1.6175,-1.6176,-1.6166,-1.6156,-1.6179,-1.6162,-1.6176,-1.6176,-1.618,-1.618,-1.6227,-1.6183,-1.6182,-1.6182,-1.6182,0,-1.6199,-1.6208,-1.6195,-1.62,-1.621,-1.6198,-1.6209,-1.6205,-1.6202,-1.6207,-1.6194,-1.6199,-1.6186,-1.6191,-1.6183,-1.6194,-1.6195,-1.6192,-1.6189,-1.6193,-1.6193,-1.6193,-1.619,-1.6184,-1.6183,-1.6183,-1.6183,0,-1.6231,-1.6223,-1.6231,-1.6225,-1.6224,-1.6232,-1.6226,-1.6232,-1.6226,-1.6233,-1.6234,-1.6225,-1.623,-1.6221,-1.6224,-1.622,-1.6235,-1.623,-1.6236,-1.6235,-1.6249,-1.6248,-1.6297,-1.6303,-1.6255,-1.6256,-1.6256,0,-1.6249,-1.6256,-1.6251,-1.6254,-1.6252,-1.6257,-1.6258,-1.6248,-1.625,-1.6249,-1.6255,-1.6259,-1.6261,-1.627,-1.6264,-1.6268,-1.6262,-1.6279,-1.6262,-1.6266,-1.6263,-1.6263,-1.6264,-1.6282,-1.6283,-1.6283,-1.6284,0,-1.6283,-1.628,-1.6282,-1.6285,-1.6287,-1.6288,-1.6288,-1.6291,-1.6281,-1.6284,-1.629,-1.6292,-1.6296,-1.6301,-1.6303,-1.6301,-1.6291,-1.629,-1.6293,-1.6296,-1.6299,-1.6298,-1.6246,-1.6288,-1.6288,-1.6287,-1.6287,-1.6287,-1.631,-1.6316,-1.6314,-1.6318,-1.6317,-1.6319,-1.6324,-1.632,-1.6324,-1.6327,-1.6321,-1.6328,-1.6328,-1.633,-1.633,-1.6336,-1.6328,-1.6333,-1.6334,-1.6336,-1.6338,-1.6299,-1.6336,-1.6336,-1.6336,-1.6336,-1.6336,0,-1.6343,-1.6342,-1.6346,-1.6347,-1.6351,-1.6343,-1.6343,-1.6347,-1.6354,-1.6354,-1.6357,-1.6365,-1.637,-1.6366,-1.637,-1.6376,-1.6372,-1.6378,-1.6377,-1.6377,-1.6344,-1.6341,-1.6381,-1.6381,-1.6381,-1.6381,-1.6381,-1.6381,-1.6361,-1.6372,-1.6368,-1.6379,-1.6378,-1.6385,-1.6386,-1.6388,-1.6388,-1.6397,-1.6402,-1.6399,-1.6398,-1.6403,-1.6408,-1.6407,-1.641,-1.6417,-1.6414,-1.6384,-1.6379,-1.6375,-1.6372,-1.6418,-1.6418,-1.6447,-1.6447,-1.6447]},{"header":{"parameterUnit":"m.s-1","parameterCategory":1,"la1":30.2991,"la2":30.254,"lo1":-89.0895,"lo2":-89.0444,"dy":0.0017,"dx":0.0017,"nx":28,"ny":28,"refTime":"2024-04-30T03:00:00:Z","depth":0,"parameterNumber":3,"parameterNumberName":"V-component_of_WINDS"},"data":[0,0,0,0,0,0,0,0,0,0,0,0,0,0,0,0,0,0,0,0,0,0,0,0,0,0,0,0,0,0,0,0,0,0,0,0,0,0,0,0,0,0,0,0,0,0,0,0,0,0,0,0,0,0,0,0,0,0,3.6692,3.6692,0,3.6748,3.6749,3.675,3.6805,3.6806,3.6807,3.6807,3.6861,3.6862,3.6862,0,0,0,0,0,0,0,0,0,0,0,0,0,3.6628,3.6628,3.6691,3.6692,3.6693,3.6748,3.6749,3.675,3.6805,3.6806,3.6807,3.6808,3.6861,3.6862,3.6862,0,0,0,0,0,0,0,0,0,0,0,0,0,3.6667,3.6629,3.6691,3.6727,3.6731,3.6748,3.6749,3.675,3.6805,3.6806,3.6807,3.6808,3.686,3.6861,3.6863,3.6847,0,0,3.6866,3.6866,0,0,0,0,0,0,0,0,3.6664,3.6669,3.6721,3.6725,3.6729,3.6771,3.6746,3.6782,3.6805,3.6777,3.6807,3.6809,3.683,3.6833,3.6842,3.685,3.6852,3.6866,3.6867,3.6867,3.6867,0,0,0,0,0,0,0,3.6662,3.6667,3.6714,3.6722,3.6727,3.6739,3.6746,3.6753,3.6796,3.6779,3.6783,3.679,3.6832,3.684,3.6843,3.6853,3.6866,3.6867,3.6868,3.6868,3.6852,3.6851,0,0,0,0,0,0,3.6654,3.6664,3.6712,3.6716,3.6699,3.674,3.6747,3.6756,3.6796,3.6804,3.6789,3.6792,3.6838,3.6842,3.6845,3.683,3.6867,3.6868,3.6869,3.6853,3.6851,3.685,0,0,0,0,0,0,3.6652,3.6658,3.671,3.6691,3.6699,3.674,3.6749,3.6757,3.6765,3.6803,3.6811,3.6789,3.6839,3.6844,3.6847,3.6833,3.6869,3.687,3.6854,3.6852,3.6851,3.68,0,0,0,0,0,0,3.665,3.6657,3.6652,3.6691,3.67,3.6711,3.6748,3.6757,3.6767,3.6772,3.6806,3.6813,3.684,3.6845,3.6848,3.6835,3.6871,3.6855,3.6853,3.6851,3.6803,3.6797,3.6791,0,0,0,0,0,3.6648,3.6634,3.6652,3.6657,3.6695,3.671,3.6715,3.6748,3.6766,3.6761,3.6786,3.6812,3.6834,3.6845,3.6848,3.6836,3.6856,3.6854,3.6851,3.6806,3.6798,3.6792,0,0,0,0,0,0,3.6591,3.664,3.666,3.6659,3.668,3.672,3.6715,3.6739,3.6755,3.6759,3.6798,3.6805,3.6803,3.682,3.6831,3.6823,3.6849,3.6847,3.6813,3.6806,3.68,3.6796,3.6871,0,0,0,0,0,3.6579,3.6589,3.663,3.6625,3.6635,3.6673,3.6681,3.6705,3.6728,3.6737,3.6762,3.6782,3.6794,3.6801,3.6814,3.6806,3.6814,3.6799,3.6793,3.6788,3.6786,3.6784,3.6778,3.6842,3.6842,3.6842,0,0,3.6553,3.6581,3.6584,3.6615,3.6634,3.6643,3.668,3.6687,3.6694,3.6738,3.6743,3.6761,3.6787,3.6784,3.6785,3.6798,3.677,3.6785,3.6781,3.6782,3.6781,3.6774,3.6769,3.684,3.6841,3.6841,0,0,3.651,3.6532,3.6531,3.655,3.658,3.6606,3.6605,3.6642,3.6656,3.6662,3.6696,3.6703,3.6723,3.674,3.6751,3.6715,3.674,3.6718,3.6688,3.6685,3.668,3.6676,3.6663,3.6658,3.6716,3.6716,3.6716,0,3.6474,3.6489,3.6527,3.6533,3.6545,3.6587,3.6586,3.6602,3.6633,3.664,3.6656,3.6682,3.6701,3.6704,3.6696,3.6703,3.6703,3.6715,3.6678,3.6674,3.667,3.6659,3.6654,3.6713,3.6714,3.6714,3.6714,0,3.6443,3.6453,3.6448,3.648,3.6492,3.6494,3.6531,3.6538,3.6561,3.6584,3.6589,3.6615,3.6634,3.6637,3.6658,3.6642,3.665,3.6671,3.6697,3.6661,3.6651,3.6647,3.6709,3.671,3.6711,3.6712,0,0,3.6366,3.6419,3.6417,3.6432,3.6469,3.6477,3.648,3.6501,3.6506,3.6526,3.653,3.6546,3.6566,3.6579,3.6603,3.66,3.6571,3.6622,3.6623,3.6612,3.6555,3.6539,3.6534,3.6588,3.6587,3.6586,3.6553,0,3.6329,3.634,3.6375,3.6374,3.6384,3.6425,3.6428,3.645,3.6472,3.6483,3.6506,3.6517,3.6543,3.6551,3.655,3.6575,3.656,3.6578,3.6591,3.6591,3.6583,3.6529,3.6512,3.6479,3.655,3.6549,3.6549,0,3.6288,3.6308,3.6309,3.6347,3.6352,3.6354,3.6376,3.6386,3.6412,3.6428,3.6443,3.647,3.6475,3.65,3.6507,3.6518,3.6526,3.6539,3.6538,3.654,3.6567,3.6529,3.647,3.6465,3.6543,3.6543,3.6544,0,3.6232,3.6259,3.6264,3.6275,3.6318,3.6319,3.6337,3.6364,3.6374,3.6393,3.64,3.6418,3.6428,3.6441,3.6473,3.6488,3.6476,3.6504,3.6489,3.6489,3.6485,3.6485,3.6426,3.6489,3.6489,3.649,3.649,0,3.6188,3.6187,3.6239,3.6242,3.6242,3.6281,3.628,3.6301,3.6325,3.6332,3.6368,3.6373,3.6414,3.6424,3.6448,3.6451,3.6455,3.6467,3.6474,3.6464,3.6463,3.647,3.6473,3.6488,3.6489,3.6489,3.6489,0,3.6125,3.616,3.6168,3.6209,3.6219,3.6217,3.6252,3.6256,3.628,3.6289,3.6293,3.6331,3.6344,3.6377,3.6398,3.6415,3.6411,3.6423,3.6403,3.6407,3.6391,3.6392,3.6334,3.6329,3.6395,3.6395,3.6394,0,3.6094,3.6095,3.6137,3.6145,3.6162,3.6174,3.6186,3.6224,3.6234,3.6264,3.6264,3.6281,3.6296,3.6316,3.6344,3.6361,3.6374,3.6352,3.6376,3.6367,3.6374,3.6373,3.6374,3.6347,3.6346,3.6345,3.6344,0,3.6037,3.6055,3.6071,3.6093,3.6106,3.6125,3.6145,3.6149,3.6192,3.6202,3.6217,3.6229,3.6252,3.6268,3.629,3.6307,3.6332,3.6337,3.6335,3.6325,3.6313,3.632,3.6388,3.6338,3.6338,3.6339,3.6339,3.634,3.599,3.5993,3.6023,3.604,3.606,3.6078,3.6084,3.611,3.6124,3.6147,3.6169,3.6182,3.6208,3.6239,3.6255,3.6265,3.6278,3.6274,3.6274,3.6272,3.6268,3.6312,3.6269,3.6269,3.6269,3.6269,3.6269,0,3.5934,3.5956,3.5971,3.6,3.6013,3.6038,3.6062,3.6071,3.6083,3.6106,3.6121,3.6138,3.6154,3.6185,3.6203,3.6205,3.6217,3.6209,3.6209,3.6212,3.6255,3.6255,3.6198,3.6198,3.6198,3.6198,3.6198,3.6199,3.5907,3.5914,3.5935,3.5952,3.5973,3.5988,3.6,3.6017,3.6035,3.6054,3.6068,3.6089,3.6114,3.6135,3.615,3.6159,3.6164,3.6151,3.6163,3.6203,3.6209,3.6216,3.6216,3.6152,3.6152,3.612,3.612,3.6119]}]]